Leadville, CO

10:38 AM MST on November 23, 2017 (GMT -0700)
Lake County

Weather History for KLXV - September, 2012

Change the Weather History Date:

Saturday, September 22, 2012

  Actual Average Record
Temperature  
Mean Temperature 48 °F -  
Max Temperature 67 °F 59 °F 68 °F (1987)
Min Temperature 29 °F 29 °F 21 °F (2004)
Degree Days  
Heating Degree Days 17 21  
Month to date heating degree days 360 396  
Since 1 July heating degree days 930 1118  
Cooling Degree Days 0 0  
Month to date cooling degree days 0 0  
Year to date cooling degree days 0 0  
Moisture  
Dew Point 20 °F    
Average Humidity 42    
Maximum Humidity 69    
Minimum Humidity 14    
Precipitation  
Precipitation 0.00 in 0.04 in 0.55 in (2006)
Month to date precipitation 0.78 0.85  
Year to date precipitation 9.23 9.80  
Sea Level Pressure  
Sea Level Pressure 30.09 in    
Wind  
Wind Speed 4 mph (NNW)    
Max Wind Speed 16 mph    
Max Gust Speed 24 mph    
Visibility 10 miles    
Events      
T = Trace of Precipitation, MM = Missing Value Source: NWS Daily Summary

Daily Weather History Graph

Daily Weather History Graph

Search for Another Location

Airport or City:

Trip Planner

Search our weather history database for the weather conditions in past years. The results will help you decide how hot, cold, wet, or windy it might be!

Date:

Astronomy

Sep. 22, 2012 Rise Set
Actual Time 6:53 AM MDT 7:01 PM MDT
Civil Twilight 6:26 AM MDT 7:28 PM MDT
Nautical Twilight 5:55 AM MDT 7:59 PM MDT
Astronomical Twilight 5:23 AM MDT 8:31 PM MDT
Moon 2:11 PM MDT (9/22) No Moon Set
Length of Visible Light 13h 01m
Length of Day
12h 07m
Waxing Crescent, 49% of the Moon is Illuminated
Sep 22
Waxing Crescent
Sep 22
First Quarter
Sep 29
Full
Oct 8
Last Quarter
Oct 15
New

Hourly Weather History & Observations

Time (MDT) Temp. Windchill Dew Point Humidity Pressure Visibility Wind Dir Wind Speed Gust Speed Precip Events Conditions
12:53 AM 42.1 °F 40.2 °F 23.0 °F 47% 30.03 in 10.0 mi East 3.5 mph - N/A   Clear
1:53 AM 39.0 °F - 23.0 °F 53% 30.05 in 10.0 mi Calm Calm - N/A   Clear
2:53 AM 39.0 °F - 23.0 °F 53% 30.06 in 10.0 mi Calm Calm - N/A   Clear
3:53 AM 37.9 °F - 23.0 °F 55% 30.05 in 10.0 mi Calm Calm - N/A   Clear
4:53 AM 35.1 °F - 23.0 °F 61% 30.08 in 10.0 mi Calm Calm - N/A   Clear
5:53 AM 35.1 °F 32.2 °F 23.0 °F 61% 30.09 in 10.0 mi SSE 3.5 mph - N/A   Clear
6:53 AM 35.1 °F - 23.0 °F 61% 30.14 in 10.0 mi Calm Calm - N/A   Clear
7:53 AM 33.1 °F - 24.1 °F 70% 30.22 in 10.0 mi Calm Calm - N/A   Clear
8:53 AM 45.0 °F - 26.1 °F 48% 30.17 in 10.0 mi Calm Calm - N/A   Clear
9:53 AM 51.1 °F - 26.1 °F 38% 30.12 in 10.0 mi Calm Calm - N/A   Clear
10:53 AM 55.0 °F - 25.0 °F 31% 30.12 in 10.0 mi South 5.8 mph - N/A   Clear
11:53 AM 59.0 °F - 19.9 °F 22% 30.06 in 10.0 mi Calm Calm - N/A   Clear
12:53 PM 64.0 °F - 18.0 °F 17% 30.03 in 10.0 mi WNW 10.4 mph 17.3 mph N/A   Clear
1:53 PM 66.0 °F - 16.0 °F 15% 30.01 in 10.0 mi NNW 9.2 mph 19.6 mph N/A   Partly Cloudy
2:53 PM 66.0 °F - 16.0 °F 15% 30.00 in 10.0 mi NW 15.0 mph 20.7 mph N/A   Clear
3:53 PM 66.0 °F - 16.0 °F 15% 29.99 in 10.0 mi WNW 11.5 mph 18.4 mph N/A   Clear
4:20 PM 66.2 °F - 15.8 °F 14% 30.45 in 10.0 mi NNW 11.5 mph 19.6 mph N/A   Scattered Clouds
4:53 PM 64.9 °F - 16.0 °F 15% 30.01 in 10.0 mi North 11.5 mph - N/A   Mostly Cloudy
5:53 PM 64.0 °F - 17.1 °F 16% 30.01 in 10.0 mi WNW 9.2 mph - N/A   Overcast
6:53 PM 59.0 °F - 18.0 °F 20% 30.07 in 10.0 mi WNW 3.5 mph - N/A   Mostly Cloudy
7:53 PM 55.9 °F - 18.0 °F 23% 30.12 in 10.0 mi North 3.5 mph - N/A   Mostly Cloudy
8:53 PM 51.1 °F - 17.1 °F 26% 30.09 in 10.0 mi Calm Calm - N/A   Partly Cloudy
9:53 PM 46.0 °F 43.9 °F 17.1 °F 31% 30.09 in 10.0 mi NE 4.6 mph - N/A   Mostly Cloudy
10:53 PM 46.0 °F 44.8 °F 17.1 °F 31% 30.06 in 10.0 mi ENE 3.5 mph - N/A   Scattered Clouds
11:53 PM 45.0 °F - 17.1 °F 33% 30.06 in 10.0 mi Calm Calm - N/A   Mostly Cloudy